Regional Weather Roundup
Issued by NWS

Home | Current Version | Previous Version | Graphics & Text | Print | Product List | Glossary On
Versions: 1 2 3 4 5 6 7 8 9 10 11 12 13 14 15 16 17 18 19 20 21 22 23 24 25 26 27 28 29 30 31 32 33 34 35 36 37 38 39 40 41 42 43 44 45 46 47 48 49 50
000
ASUS45 KBOU 031907
RWRCO

WEATHER ROUNDUP FOR COLORADO
NATIONAL WEATHER SERVICE DENVER/BOULDER CO
100 PM MDT SUN MAY 03 2015

NOTE: "FAIR" INDICATES FEW OR NO CLOUDS BELOW 12000 FEET WITH NO
SIGNIFICANT WEATHER AND/OR OBSTRUCTIONS TO VISIBILITY.

COZ001>005-013-030-031-032000-
...NORTHWEST COLORADO...

CITY           SKY/WX    TMP DP  RH WIND       PRES   REMARKS
CRAIG          MOSUNNY   66  34  30 NW9       30.01F
HAYDEN         MOSUNNY   66  34  30 W15G22    30.02F
MEEKER         CLOUDY    59  40  49 S3        30.04F
MOUNT WERNER   NOT AVBL
STEAMBOAT SPGS MOSUNNY   64  32  30 W15G23    30.03F
WALDEN         PTSUNNY   61  27  27 SW12G20   30.09F
$$

COZ006>008-011-032000-
...WEST CENTRAL VALLEYS...

CITY           SKY/WX    TMP DP  RH WIND       PRES   REMARKS
GRAND JUNCTION PTSUNNY   70  33  25 CALM      29.96F
MONTROSE       PTSUNNY   71  28  20 VRB7      30.03F
EAGLE          MOSUNNY   70  28  21 SW14      30.03F
RIFLE          MOSUNNY   75  30  19 W17       29.97F
DELTA          CLOUDY    71  32  24 W16       30.00S
NUCLA          PTSUNNY   70  32  24 SW15      30.08F
$$

COZ017>023-064>068-032000-
...SOUTHWEST COLORADO...

CITY           SKY/WX    TMP DP  RH WIND       PRES   REMARKS
DURANGO        PTSUNNY   65  32  29 W14G22    30.10F
CORTEZ         MOSUNNY   69  35  28 SE8       30.07F
PAGOSA SPRINGS TSTM      63  37  37 W8G16     30.12F
TELLURIDE      TSTM      48  38  68 NW5G18    30.23S
WOLF CREEK PAS NOT AVBL
$$

COZ009-010-012-014-032>034-037-058>063-032000-
...CENTRAL COLORADO...

CITY           SKY/WX    TMP DP  RH WIND       PRES   REMARKS
ASPEN          PTSUNNY   60  29  30 NW17G24   30.09S
BUENA VISTA    NOT AVBL
COPPER MTN     CLOUDY    41  25  52 S20       30.33S
BERTHOUD PASS  PTSUNNY   36  30  80 MISG      30.36F
COTTONWOOD PAS CLOUDY    55  21  26 CALM      30.22S
GUNNISON       PTSUNNY   64  28  25 SE8       30.12F
KREMMLING      PTSUNNY   61  27  27 N16       30.07S
LEADVILLE      PTSUNNY   55  19  24 N9        30.19F
MONARCH PASS   PTSUNNY   39  25  56 SW14      30.43S
SALIDA         PTSUNNY   64  29  26 NW8       30.15F
SUNLIGHT       PTSUNNY   48  28  46 CALM      30.30S
WILKERSON PASS CLOUDY    50  21  32 CALM      30.31F
$$

COZ069>075-032000-
...SAN LUIS VALLEY/SANGRE DE CRISTO MOUNTAINS...

CITY           SKY/WX    TMP DP  RH WIND       PRES   REMARKS
ALAMOSA        PTSUNNY   63  32  31 VRB7G16   30.10F
LA VETA PASS   LGT RAIN  45  32  61 SE9       30.25S
SAGUACHE       PTSUNNY   59  32  36 W5        30.13F
$$

COZ035-036-038>040-032000-
...NORTHERN COLORADO FRONT RANGE...

CITY           SKY/WX    TMP DP  RH WIND       PRES   REMARKS
DENVER INTL AP PTSUNNY   71  36  27 E14       29.98F
DMNS CITY PARK   N/A     70  32  24 NE12G17   29.97R
AURORA         PTSUNNY   70  36  28 NE14      29.99F
FRONT RANGE AP PTSUNNY   72  39  30 NE9       29.99F
ERIE MUNI ARPT PTSUNNY   71  36  27 E9        29.95F
BOULDER MUN AP PTSUNNY   75  37  25 E15       29.94F
CENTENNIAL     PTSUNNY   70  32  24 E7        29.99F
BROOMFIELD     PTSUNNY   72  34  25 E7        29.98F
FORT COLLINS   PTSUNNY   75  41  29 E6        29.94F
LONGMONT       PTSUNNY   78  37  22 E13       29.96F
$$

COZ041-046-047-076>085-087-088-032000-
...PIKES PEAK/PALMER DIVIDE AND SOUTHERN FOOTHILLS...

CITY           SKY/WX    TMP DP  RH WIND       PRES   REMARKS
COLO. SPRINGS  CLOUDY    68  25  19 SW7       30.04R
A. F. ACADEMY  LGT RAIN  63  34  33 W9        30.06R
ELLICOTT       CLOUDY   N/A N/A N/A SE8G20    29.99F
FALCON         CLOUDY    67  24  19 N5        30.07S
FORT CARSON    PTSUNNY   68  29  23 NW21G28   29.98F
LIMON          MOSUNNY   76  33  21 NE14G24   29.97F
MONUMENT HILL  PTSUNNY   63  28  27 NE3       30.07S
TRINIDAD       PTSUNNY   74  31  20 E8        29.98F
$$

COZ042>045-048>051-090-091-032000-
...NORTHEAST COLORADO...

CITY           SKY/WX    TMP DP  RH WIND       PRES   REMARKS
GREELEY ARPT   MOSUNNY   75  37  25 NE3       29.95F
AKRON          SUNNY     75  39  27 N8G20     29.95F
BURLINGTON     SUNNY     79  33  19 NE9       29.91F
WRAY           SUNNY     82  35  18 NW7G21    29.89S
STERLING       SUNNY     73  41  31 N10       29.92F
HOLYOKE        NOT AVBL
FORT MORGAN    SUNNY     77 -26   1 N14       29.95F
$$

COZ086-089-092>099-032000-
...SOUTHEAST COLORADO...

CITY           SKY/WX    TMP DP  RH WIND       PRES   REMARKS
PUEBLO         PTSUNNY   80  30  16 CALM      29.90F
LA JUNTA       MOSUNNY   82  38  20 NE12      29.90F
LAMAR          PTSUNNY   79  41  25 VRB6      29.87F
SPRINGFIELD      N/A     80  33  18 NE5       29.90F
$$


USA.gov is the U.S. government's official web portal to all federal, state and local government web resources and services.